When you browse on this site, cookies collect data to enhance your experience and personalize the content and advertising you see.
Visit our Privacy Policy to learn more. By continuing to use the site, you agree to this use of cookies and data.
EN

Hourly Weather Masvingo

Today, 6 July, Monday

Time Temperature Precipitation Wind Pressure Humidity
00:00 +11°C° 0 mm 1 mps 674 mmHg 54%
01:00 +11°C° 0 mm 1 mps 673 mmHg 57%
02:00 +10°C° 0 mm 1 mps 673 mmHg 61%
03:00 +10°C° 0 mm 1 mps 673 mmHg 63%
04:00 +10°C° 0 mm 1 mps 673 mmHg 65%
05:00 +9°C° 0 mm 1 mps 673 mmHg 67%
06:00 +11°C° 0 mm 1 mps 674 mmHg 62%
07:00 +12°C° 0 mm 1 mps 674 mmHg 57%
08:00 +13°C° 0 mm 1 mps 675 mmHg 52%
09:00 +16°C° 0 mm 2 mps 675 mmHg 42%
10:00 +19°C° 0 mm 2 mps 676 mmHg 32%
11:00 +22°C° 0 mm 3 mps 676 mmHg 22%
12:00 +24°C° 0 mm 3 mps 676 mmHg 21%
13:00 +25°C° 0 mm 3 mps 675 mmHg 20%
14:00 +25°C° 0 mm 4 mps 674 mmHg 19%
15:00 +24°C° 0 mm 3 mps 674 mmHg 21%
16:00 +22°C° 0 mm 3 mps 674 mmHg 23%
17:00 +21°C° 0 mm 3 mps 674 mmHg 25%
18:00 +19°C° 0 mm 2 mps 674 mmHg 31%
19:00 +16°C° 0 mm 2 mps 674 mmHg 36%
20:00 +14°C° 0 mm 2 mps 674 mmHg 42%
21:00 +14°C° 0 mm 2 mps 674 mmHg 45%
22:00 +13°C° 0 mm 2 mps 673 mmHg 49%
23:00 +12°C° 0 mm 2 mps 673 mmHg 53%

Tomorrow, 7 July, Tuesday

Time Temperature Precipitation Wind Pressure Humidity
00:00 +12°C° 0 mm 1 mps 673 mmHg 54%
01:00 +12°C° 0 mm 1 mps 673 mmHg 56%
02:00 +11°C° 0 mm 1 mps 673 mmHg 57%
03:00 +11°C° 0 mm 1 mps 672 mmHg 58%
04:00 +10°C° 0 mm 1 mps 672 mmHg 59%
05:00 +10°C° 0 mm 1 mps 672 mmHg 59%
06:00 +11°C° 0 mm 1 mps 673 mmHg 54%
07:00 +13°C° 0 mm 1 mps 673 mmHg 49%
08:00 +14°C° 0 mm 1 mps 674 mmHg 44%
09:00 +19°C° 0 mm 1 mps 675 mmHg 36%
10:00 +22°C° 0 mm 1 mps 675 mmHg 28%
11:00 +25°C° 0 mm 1 mps 676 mmHg 19%
12:00 +26°C° 0 mm 2 mps 675 mmHg 17%
13:00 +27°C° 0 mm 2 mps 675 mmHg 16%
14:00 +28°C° 0 mm 3 mps 674 mmHg 14%
15:00 +26°C° 0 mm 3 mps 674 mmHg 17%
16:00 +25°C° 0 mm 3 mps 673 mmHg 19%
17:00 +22°C° 0 mm 3 mps 673 mmHg 22%
18:00 +20°C° 0 mm 3 mps 673 mmHg 26%
19:00 +18°C° 0 mm 3 mps 673 mmHg 29%
20:00 +16°C° 0 mm 2 mps 673 mmHg 32%
21:00 +15°C° 0 mm 2 mps 673 mmHg 36%
22:00 +15°C° 0 mm 2 mps 673 mmHg 39%
23:00 +14°C° 0 mm 2 mps 674 mmHg 43%

Day after tomorrow, 8 July, Wednesday

Time Temperature Precipitation Wind Pressure Humidity
00:00 +14°C° 0 mm 2 mps 674 mmHg 47%
01:00 +13°C° 0 mm 2 mps 674 mmHg 50%
02:00 +13°C° 0 mm 2 mps 674 mmHg 53%
03:00 +12°C° 0 mm 2 mps 674 mmHg 58%
04:00 +11°C° 0 mm 3 mps 674 mmHg 62%
05:00 +10°C° 0 mm 4 mps 675 mmHg 67%
06:00 +10°C° 0 mm 5 mps 675 mmHg 72%
07:00 +10°C° 0 mm 5 mps 676 mmHg 77%
08:00 +10°C° 0 mm 6 mps 677 mmHg 83%
09:00 +13°C° 0 mm 6 mps 677 mmHg 78%
10:00 +14°C° 0 mm 5 mps 677 mmHg 74%
11:00 +15°C° 0 mm 5 mps 677 mmHg 70%
12:00 +16°C° 0 mm 5 mps 677 mmHg 63%
13:00 +19°C° 0 mm 5 mps 676 mmHg 56%
14:00 +20°C° 0 mm 5 mps 676 mmHg 49%
15:00 +19°C° 0 mm 5 mps 676 mmHg 50%
16:00 +19°C° 0 mm 5 mps 676 mmHg 51%
17:00 +17°C° 0 mm 5 mps 676 mmHg 52%
18:00 +16°C° 0 mm 5 mps 676 mmHg 58%
19:00 +15°C° 0 mm 5 mps 676 mmHg 64%
20:00 +14°C° 0 mm 4 mps 676 mmHg 70%
21:00 +13°C° 0 mm 4 mps 676 mmHg 76%
22:00 +12°C° 0 mm 3 mps 676 mmHg 82%
23:00 +11°C° 0 mm 3 mps 676 mmHg 88%

9 July, Thursday

Time Temperature Precipitation Wind Pressure Humidity
00:00 +11°C° 0 mm 3 mps 675 mmHg 91%
01:00 +10°C° 0 mm 2 mps 675 mmHg 93%
02:00 +10°C° 0 mm 2 mps 675 mmHg 95%
03:00 +10°C° 0 mm 2 mps 674 mmHg 95%
04:00 +10°C° 0 mm 2 mps 674 mmHg 95%
05:00 +10°C° 0 mm 2 mps 674 mmHg 95%
06:00 +12°C° 0 mm 2 mps 675 mmHg 90%
07:00 +12°C° 0 mm 2 mps 675 mmHg 85%
08:00 +13°C° 0 mm 2 mps 675 mmHg 81%
09:00 +16°C° 0 mm 2 mps 676 mmHg 69%
10:00 +18°C° 0 mm 2 mps 676 mmHg 58%
11:00 +20°C° 0 mm 2 mps 676 mmHg 47%
12:00 +21°C° 0 mm 2 mps 676 mmHg 44%
13:00 +23°C° 0 mm 2 mps 675 mmHg 41%
14:00 +24°C° 0 mm 2 mps 674 mmHg 39%
15:00 +23°C° 0 mm 2 mps 674 mmHg 42%
16:00 +21°C° 0 mm 3 mps 673 mmHg 45%
17:00 +20°C° 0 mm 3 mps 673 mmHg 49%
18:00 +19°C° 0 mm 3 mps 673 mmHg 55%
19:00 +17°C° 0 mm 3 mps 673 mmHg 61%
20:00 +15°C° 0 mm 2 mps 673 mmHg 67%
21:00 +15°C° 0 mm 2 mps 673 mmHg 70%
22:00 +14°C° 0 mm 2 mps 673 mmHg 72%
23:00 +14°C° 0 mm 1 mps 673 mmHg 74%

10 July, Friday

Time Temperature Precipitation Wind Pressure Humidity
00:00 +14°C° 0 mm 1 mps 672 mmHg 76%
01:00 +14°C° 0 mm 1 mps 672 mmHg 77%
02:00 +13°C° 0 mm 1 mps 672 mmHg 78%
03:00 +13°C° 0 mm 1 mps 672 mmHg 79%
04:00 +13°C° 0 mm 1 mps 672 mmHg 80%
05:00 +13°C° 0 mm 1 mps 672 mmHg 81%
06:00 +14°C° 0 mm 2 mps 672 mmHg 75%
07:00 +16°C° 0 mm 2 mps 673 mmHg 70%
08:00 +17°C° 0 mm 2 mps 673 mmHg 64%
09:00 +20°C° 0 mm 2 mps 674 mmHg 52%
10:00 +24°C° 0 mm 3 mps 674 mmHg 39%
11:00 +28°C° 0 mm 3 mps 674 mmHg 26%
12:00 +28°C° 0 mm 3 mps 673 mmHg 24%
13:00 +29°C° 0 mm 3 mps 673 mmHg 23%
14:00 +30°C° 0 mm 3 mps 672 mmHg 21%
15:00 +29°C° 0 mm 2 mps 672 mmHg 23%
16:00 +28°C° 0 mm 2 mps 671 mmHg 25%
17:00 +26°C° 0 mm 1 mps 671 mmHg 27%
18:00 +25°C° 0 mm 1 mps 671 mmHg 30%
19:00 +23°C° 0 mm 1 mps 671 mmHg 34%
20:00 +21°C° 0 mm 1 mps 671 mmHg 37%
21:00 +20°C° 0 mm 1 mps 671 mmHg 39%
22:00 +20°C° 0 mm 1 mps 671 mmHg 42%
23:00 +19°C° 0 mm 1 mps 671 mmHg 44%

11 July, Saturday

Time Temperature Precipitation Wind Pressure Humidity
00:00 +18°C° 0 mm 2 mps 670 mmHg 46%
01:00 +17°C° 0 mm 2 mps 670 mmHg 48%
02:00 +17°C° 0 mm 2 mps 670 mmHg 50%
03:00 +17°C° 0 mm 2 mps 670 mmHg 51%
04:00 +16°C° 0 mm 3 mps 670 mmHg 53%
05:00 +16°C° 0 mm 3 mps 670 mmHg 54%
06:00 +17°C° 0 mm 3 mps 670 mmHg 51%
07:00 +19°C° 0 mm 3 mps 671 mmHg 47%
08:00 +20°C° 0 mm 3 mps 672 mmHg 44%
09:00 +23°C° 0 mm 4 mps 672 mmHg 37%
10:00 +26°C° 0 mm 5 mps 673 mmHg 29%
11:00 +29°C° 0 mm 5 mps 674 mmHg 22%
12:00 +29°C° 0 mm 5 mps 673 mmHg 23%
13:00 +28°C° 0 mm 5 mps 673 mmHg 23%
14:00 +27°C° 0 mm 5 mps 672 mmHg 24%
15:00 +26°C° 0 mm 4 mps 672 mmHg 26%
16:00 +25°C° 0 mm 4 mps 672 mmHg 28%
17:00 +24°C° 0 mm 3 mps 672 mmHg 30%
18:00 +21°C° 0 mm 3 mps 673 mmHg 33%
19:00 +19°C° 0 mm 2 mps 673 mmHg 35%
20:00 +16°C° 0 mm 2 mps 673 mmHg 38%
21:00 +16°C° 0 mm 2 mps 674 mmHg 36%
22:00 +15°C° 0 mm 2 mps 674 mmHg 35%
23:00 +14°C° 0 mm 2 mps 674 mmHg 33%
Show more